Location: Riverton
(43.0250°N, 108.3790°W)
Time: 19:23:37
(UTC-07:00)

JAS-2 - Visible Passes

Search period start: 05 March 2015 00:00
Search period end: 15 March 2015 01:00
Orbit: 800 x 1321 km, 98.5° (Epoch: 04 March)

Date Brightness Start Highest point End Pass type
(mag) Time Alt. Az. Time Alt. Az. Time Alt. Az.
05 Mar 12.5 03:00:58 10° NE 03:04:52 15° E 03:09:20 10° ESE visible
05 Mar 10.2 04:43:31 10° NNE 04:51:04 77° ESE 04:58:58 10° S visible
06 Mar 11.5 03:49:03 10° NNE 03:55:49 35° E 04:02:56 10° SSE visible
06 Mar 10.2 05:33:47 10° N 05:41:05 54° WNW 05:48:38 10° SW visible
07 Mar 12.5 02:56:23 10° NE 02:59:57 14° E 03:04:07 10° ESE visible
07 Mar 10.3 04:38:38 10° NNE 04:46:16 73° ESE 04:54:09 10° S visible
08 Mar 11.6 04:44:15 10° NNE 04:50:58 33° E 04:57:58 10° SSE visible
08 Mar 10.2 06:28:52 10° N 06:36:18 57° WNW 06:43:55 10° SW visible
09 Mar 12.6 03:51:52 10° ENE 03:55:02 13° E 03:58:48 10° ESE visible
09 Mar 10.4 05:33:47 10° NNE 05:41:28 70° E 05:49:19 10° S visible
10 Mar 11.6 04:39:29 10° NNE 04:46:07 31° E 04:52:59 10° SSE visible
10 Mar 10.2 06:23:58 10° N 06:31:31 60° WNW 06:39:11 10° SSW visible
11 Mar 12.6 03:47:27 10° ENE 03:50:06 12° E 03:53:23 10° ESE visible
11 Mar 10.5 05:28:57 10° NNE 05:36:39 66° E 05:44:28 10° S visible
12 Mar 11.7 04:34:43 10° NNE 04:41:15 30° E 04:47:59 10° SSE visible
12 Mar 10.1 06:19:05 10° N 06:26:44 64° WNW 06:34:26 10° SSW visible
13 Mar 12.6 03:43:10 10° ENE 03:45:10 11° E 03:47:49 10° E visible
13 Mar 10.6 05:24:07 10° NNE 05:31:51 63° E 05:39:35 10° S visible
14 Mar 11.8 04:30:00 10° NE 04:36:23 28° E 04:42:58 10° SSE visible
14 Mar 10.1 06:14:13 10° N 06:21:58 67° WNW 06:29:40 10° SSW visible
